Weather in Murska Sobota

Slovenia     46°39′35″N   16°09′57″E
temp.,
°C
wind,
m/s
gust,
m/s
humid.,
%
clouds,
%
prec.,
mm/h
press.,
hPa
HPBL,
m
17 april, sat
sat1723:00+3ene3574100 0.0 102285
02:00+1nw118247 0.0 102110
05:000nnw1187100 0.0 102111
08:00+3n1273100 0.0 1021195
11:00+8nne4658100 0.0 10191456
14:00+9ne6761100 0.0 10181394
17:00+9ene5765100 0.1 10171271
20:00+7ne5969100 0.1 1018674
18 april, sun
sun1823:00+6nne51066100 0.0 1018512
02:00+6nne41069100 0.0 1018512
05:00+6n4971100 0.0 1017532
08:00+6nne5873100 0.0 1017718
11:00+8nne4571100 0.1 10171042
14:00+9ene3467100 0.4 10171236
17:00+10ne346294 0.4 10161141
20:00+7ne3478100 0.7 101782
19 april, mon
mon1923:00+5nne2384100 0.0 101756
02:00+6nw2483100 0.1 1017158
05:00+6nw2290100 0.9 101667
08:00+7n378299 1.0 1016853
11:00+6n4791100 1.2 1016893
14:00+6nne3691100 3.1 1015905
17:00+6nne2694100 0.8 1015635
20:00+5ene119597 0.9 101534
20 april, tue
tue2023:00+6w1196100 0.0 101528
02:00+6w2396100 0.5 101497
05:00+6wnw2495100 0.5 1014157
08:00+6wnw2392100 0.7 1014142
11:00+10wnw1273100 0.1 1014935
14:00+11sse2172100 0.7 1014714
17:00+11ese227479 1.3 1014547
20:00+8s2288100 2.0 101511
21 april, wed
wed2123:00+6wsw1190100 0.0 101610
02:00+5wnw229291 0.1 101611
05:00+4w229213 0.1 101712
08:00+7w23785 0.1 1018157
11:00+13sw22635 0.0 1018791
14:00+16s33496 0.0 10171752
17:00+16ssw545219 0.0 10161419
20:00+8ene338865 1.6 101848